Location: Harwich
(41.7160°N, 69.9939°W)
Time: 10:57:41
(UTC+01:00)

Explorer 7 - Visible Passes

Search period start: 31 January 2023 00:00
Search period end: 10 February 2023 00:00
Orbit: 480 x 660 km, 50.3° (Epoch: 30 January)

Date Brightness Start Highest point End Pass type
(mag) Time Alt. Az. Time Alt. Az. Time Alt. Az.
31 Jan 8.2 01:25:11 10° WNW 01:29:21 42° SW 01:29:21 42° SW visible
31 Jan 7.2 23:45:44 10° NW 23:50:23 66° NNE 23:54:58 11° ESE visible
01 Feb 8.7 01:26:26 10° WNW 01:30:31 29° SW 01:31:05 28° SSW visible
01 Feb 7.1 23:46:43 10° WNW 23:51:23 88° NNE 23:56:12 10° ESE visible
02 Feb 9.4 01:27:54 10° W 01:31:18 20° SW 01:33:03 16° SSW visible
02 Feb 7.5 23:47:43 10° WNW 23:52:21 67° SW 23:57:06 10° SE visible
03 Feb 9.9 01:29:53 10° W 01:32:04 13° SW 01:34:14 10° SSW visible
03 Feb 8.2 23:48:48 10° WNW 23:53:15 46° SW 23:57:48 10° SSE visible
04 Feb 9.0 23:49:57 10° WNW 23:54:05 32° SW 23:58:19 10° SSE visible
05 Feb 9.7 23:51:20 10° W 23:54:52 22° SW 23:58:30 10° S visible
06 Feb 10.1 23:53:06 10° W 23:55:37 14° SW 23:58:10 10° SSW visible
